ONEWEB-0682, 56718

Orbit data source: Space-Track

ONEWEB-0682, 56718 is a payload satellite owned by One Web (NAA) (UK) in LEO that was launched on Sat, 20 May 2023 UTC via an FALCON 9 launch vehicle from the Air Force Western Test Range (AFWTR). Payload-class satellites include a variety of spacecraft equipped with specific instruments for various scientific and technological missions. These include communications satellites like Starlink; space stations such as the ISS; scientific satellites like the Hubble; Earth observation satellites from companies like Planet Labs, Umbra, and HawkEye 360; GPS; miniature CubeSats for education and research; and military/defense satellites.

Loading next visibility...
Identifier
56718, 2023-068J
Orbit
LEO
Country
Flag of UKUK
Related business
Manufacturer
One Web
Mission
Operational Commercial Communications
Bus & Motor
ARROW, Unknown motor
Mass
148 kg wet, ~140 kg dry
Launch date (UTC)
2023-05-20 (3 years ago)
Launch vehicle
FALCON 9
Launch site
Air Force Western Test Range (AFWTR)
Object type
Payload
Rocket body
Debris
Shape & HBR
Trap Box + 2 Pan, 6.7 m
Radar Cross Section
3.464 m², Large (>1 m²)

Expand to show TLE details & history
Last TLE update: 2 days ago

TLE from 2 days ago
0 ONEWEB-0682
1 56718U 23068J   26171.22605985  .00000127  00000-0  30250-3 0  9993
2 56718  87.9007 258.5887 0002516  97.0138 263.1279 13.15548651149851
Epoch: 2026-06-20T05:25Z
TLE epoch observation values (Epoch: 2026-06-20T05:25:31.571Z)
Latitude
0.00005°
Longitude
-91.23657°
Altitude
1,204.894 km
Speed
7.251 km/s
True Right ascension
17h 14m 21s
True Declination
0° 00' 00"
Sunlit
Object was in full shadow at epoch
Visualization orbit readout
Latitude
Unknown
Longitude
Unknown
Altitude
Unknown
Speed
Unknown
Apparent Right ascension
Unknown
Apparent Declination
Unknown
Sunlit
N/A
Visualization observer readout
Local Sidereal Time
21:32:10
Azimuth
Unknown
Elevation
Unknown
Doppler factor
Unknown
Orbital elements
Apogee altitude
1,200.789 km
Perigee altitude
1,196.976 km
Semi-major axis
7,577.019 km
Eccentricity
0.00025
Inclination
87.9007°
RAAN
258.5887°
Arg. of periapsis
97.0138°
True anomaly
263.09928°
Mean anomaly
263.1279°
Eccentric anomaly
263.11359°
Mean motion
3.29076 °/min
Orbital period
109.4 mins
BSTAR
0.0003025
Loading maneuver chart data...
Computing Atmospheric mass density...
Loading historical data...
Loading historical data...
Loading historical data...
Loading historical data...
Loading historical data...
Loading historical data...
Loading historical data...

Documentation

Showing up to 5 results
|